Logan, UT

5:36 AM MST on December 12, 2017 (GMT -0700)
Logan-Cache

Weather History for KLGU - September, 2013

Change the Weather History Date:

Tuesday, September 24, 2013

  Actual Average Record
Temperature  
Mean Temperature 58 °F -  
Max Temperature 80 °F 72 °F 90 °F (2001)
Min Temperature 36 °F 40 °F 27 °F (2000)
Degree Days  
Heating Degree Days 8    
Growing Degree Days 8 (Base 50)    
Moisture  
Dew Point 34 °F    
Average Humidity 47    
Maximum Humidity 86    
Minimum Humidity 15    
Precipitation  
Precipitation 0.00 in - - ()
Sea Level Pressure  
Sea Level Pressure 29.82 in    
Wind  
Wind Speed 5 mph (West)    
Max Wind Speed 23 mph    
Max Gust Speed 29 mph    
Visibility 10 miles    
Events Rain    
Averages and records for this station are not official NWS values.
T = Trace of Precipitation, MM = Missing Value Source: NWS Daily Summary

Daily Weather History Graph

Daily Weather History Graph

Search for Another Location

Airport or City:

Trip Planner

Search our weather history database for the weather conditions in past years. The results will help you decide how hot, cold, wet, or windy it might be!

Date:

Astronomy

Sep. 24, 2013 Rise Set
Actual Time 7:17 AM MDT 7:20 PM MDT
Civil Twilight 6:49 AM MDT 7:48 PM MDT
Nautical Twilight 6:16 AM MDT 8:20 PM MDT
Astronomical Twilight 5:43 AM MDT 8:53 PM MDT
Moon 10:36 PM MDT (9/24) 12:39 PM MDT (9/24)
Length of Visible Light 12h 58m
Length of Day
12h 03m
Waning Gibbous, 72% of the Moon is Illuminated
Sep 24
Waning Gibbous
Sep 26
Last Quarter
Oct 4
New
Oct 11
First Quarter
Oct 18
Full

Hourly Weather History & Observations

Time (MDT) Temp. Windchill Dew Point Humidity Pressure Visibility Wind Dir Wind Speed Gust Speed Precip Events Conditions
12:51 AM 45.0 °F - 36.0 °F 71% 30.01 in 10.0 mi Calm Calm - N/A   Clear
1:51 AM 46.0 °F - 35.1 °F 66% 30.00 in 10.0 mi Calm Calm - N/A   Clear
2:51 AM 45.0 °F 43.5 °F 35.1 °F 68% 30.00 in 10.0 mi NE 3.5 mph - N/A   Clear
3:51 AM 44.1 °F - 35.1 °F 71% 29.99 in 10.0 mi Calm Calm - N/A   Clear
4:51 AM 39.9 °F - 34.0 °F 79% 29.99 in 10.0 mi Calm Calm - N/A   Clear
5:51 AM 39.9 °F - 34.0 °F 79% 29.98 in 10.0 mi Calm Calm - N/A   Clear
6:51 AM 36.0 °F - 32.0 °F 86% 29.99 in 10.0 mi Calm Calm - N/A   Clear
7:51 AM 39.0 °F - 34.0 °F 82% 29.99 in 10.0 mi Calm Calm - N/A   Clear
8:51 AM 46.0 °F 44.8 °F 37.9 °F 73% 29.97 in 10.0 mi WNW 3.5 mph - N/A   Clear
9:51 AM 53.1 °F - 37.0 °F 55% 29.94 in 10.0 mi Variable 3.5 mph - N/A   Clear
10:51 AM 60.1 °F - 37.0 °F 42% 29.91 in - Variable 3.5 mph - N/A   Clear
11:51 AM 66.9 °F - 36.0 °F 32% 29.84 in - North - - N/A   Clear
12:51 PM 75.0 °F - 33.1 °F 22% 29.79 in 10.0 mi SSW 12.7 mph - N/A   Clear
1:51 PM 78.1 °F - 28.9 °F 17% 29.74 in 10.0 mi SSW 15.0 mph - N/A   Clear
2:51 PM 79.0 °F - 28.0 °F 15% 29.70 in 10.0 mi SW 23.0 mph 28.8 mph N/A   Clear
3:51 PM 79.0 °F - 28.9 °F 16% 29.67 in 10.0 mi SW 19.6 mph 27.6 mph N/A   Clear
4:51 PM 75.0 °F - 28.0 °F 18% 29.69 in 10.0 mi SSW 17.3 mph 24.2 mph N/A   Scattered Clouds
5:51 PM 73.9 °F - 27.0 °F 18% 29.66 in 10.0 mi South 11.5 mph - N/A   Mostly Cloudy
6:51 PM 72.0 °F - 32.0 °F 23% 29.64 in 10.0 mi Calm Calm - N/A   Clear
7:51 PM 66.0 °F - 35.1 °F 32% 29.63 in 10.0 mi NNE 8.1 mph - N/A   Partly Cloudy
8:51 PM 64.9 °F - 34.0 °F 32% 29.63 in 10.0 mi NNW 13.8 mph - N/A   Scattered Clouds
9:51 PM 64.9 °F - 34.0 °F 32% 29.61 in 10.0 mi North 13.8 mph - N/A   Clear
10:51 PM 59.0 °F - 39.0 °F 48% 29.63 in 10.0 mi NW 13.8 mph - 0.00 in Rain Light Rain
11:51 PM 59.0 °F - 39.9 °F 49% 29.62 in 10.0 mi ENE 13.8 mph - 0.00 in   Overcast